When you browse on this site, cookies collect data to enhance your experience and personalize the content and advertising you see.
Visit our Privacy Policy to learn more. By continuing to use the site, you agree to this use of cookies and data.
  • In Hungary
  • List of Countries
  • For 7 days
  • Water Temperature
  • Weather Map
  • News
  • Weather Widgets
  • user-avatar
    Login

    Hourly Weather Sokolov

    Today, 22 February, Saturday

    Time Temperature Precipitation Wind Pressure Humidity
    00:00 0°C° 0 mm 4 mps 733 mmHg 90%
    01:00 0°C° 0 mm 4 mps 733 mmHg 90%
    02:00 0°C° 0 mm 4 mps 732 mmHg 90%
    03:00 0°C° 0 mm 4 mps 732 mmHg 90%
    04:00 0°C° 0 mm 5 mps 732 mmHg 90%
    05:00 0°C° 0 mm 5 mps 731 mmHg 88%
    06:00 0°C° 0 mm 5 mps 731 mmHg 87%
    07:00 -1°C° 0 mm 5 mps 731 mmHg 85%
    08:00 +1°C° 0 mm 6 mps 731 mmHg 79%
    09:00 +2°C° 0 mm 6 mps 731 mmHg 73%
    10:00 +3°C° 0 mm 6 mps 730 mmHg 67%
    11:00 +4°C° 0 mm 7 mps 730 mmHg 64%
    12:00 +5°C° 0 mm 7 mps 730 mmHg 62%
    13:00 +6°C° 0 mm 8 mps 729 mmHg 59%
    14:00 +6°C° 0 mm 7 mps 729 mmHg 59%
    15:00 +6°C° 0 mm 7 mps 728 mmHg 58%
    16:00 +6°C° 0 mm 7 mps 728 mmHg 58%
    17:00 +6°C° 0 mm 7 mps 728 mmHg 61%
    18:00 +5°C° 0 mm 7 mps 728 mmHg 64%
    19:00 +4°C° 0 mm 7 mps 728 mmHg 67%
    20:00 +4°C° 0 mm 7 mps 728 mmHg 72%
    21:00 +5°C° 0 mm 7 mps 728 mmHg 77%
    22:00 +5°C° 0 mm 8 mps 728 mmHg 81%
    23:00 +5°C° 0.4 mm 8 mps 728 mmHg 83%

    Tomorrow, 23 February, Sunday

    Time Temperature Precipitation Wind Pressure Humidity
    00:00 +5°C° 0.4 mm 8 mps 729 mmHg 85%
    01:00 +5°C° 0.4 mm 8 mps 729 mmHg 87%
    02:00 +5°C° 0.2 mm 8 mps 729 mmHg 87%
    03:00 +5°C° 0.2 mm 8 mps 728 mmHg 86%
    04:00 +5°C° 0.2 mm 7 mps 728 mmHg 86%
    05:00 +5°C° 0.1 mm 7 mps 728 mmHg 84%
    06:00 +5°C° 0.1 mm 7 mps 728 mmHg 82%
    07:00 +5°C° 0.1 mm 7 mps 728 mmHg 80%
    08:00 +5°C° 0.5 mm 6 mps 728 mmHg 84%
    09:00 +5°C° 0.5 mm 6 mps 727 mmHg 88%
    10:00 +5°C° 0.5 mm 6 mps 727 mmHg 92%
    11:00 +5°C° 0.7 mm 7 mps 726 mmHg 90%
    12:00 +6°C° 0.7 mm 8 mps 725 mmHg 89%
    13:00 +7°C° 0.7 mm 9 mps 724 mmHg 87%
    14:00 +7°C° 0.4 mm 10 mps 722 mmHg 85%
    15:00 +8°C° 0.4 mm 10 mps 721 mmHg 84%
    16:00 +8°C° 0.4 mm 11 mps 719 mmHg 82%
    17:00 +8°C° 0.9 mm 11 mps 719 mmHg 83%
    18:00 +8°C° 0.9 mm 11 mps 719 mmHg 84%
    19:00 +9°C° 0.9 mm 12 mps 719 mmHg 84%
    20:00 +7°C° 1.8 mm 11 mps 720 mmHg 84%
    21:00 +6°C° 1.8 mm 11 mps 722 mmHg 84%
    22:00 +3°C° 1.8 mm 11 mps 723 mmHg 84%
    23:00 +2°C° 0.1 mm 10 mps 724 mmHg 82%

    Day after tomorrow, 24 February, Monday

    Time Temperature Precipitation Wind Pressure Humidity
    00:00 +1°C° 0.1 mm 9 mps 726 mmHg 80%
    01:00 0°C° 0.1 mm 8 mps 728 mmHg 79%
    02:00 -1°C° 0 mm 7 mps 728 mmHg 78%
    03:00 -2°C° 0 mm 6 mps 729 mmHg 78%
    04:00 -1°C° 0 mm 5 mps 730 mmHg 78%
    05:00 -1°C° 0 mm 4 mps 730 mmHg 80%
    06:00 0°C° 0 mm 3 mps 731 mmHg 82%
    07:00 -1°C° 0 mm 3 mps 731 mmHg 84%
    08:00 0°C° 0 mm 3 mps 731 mmHg 81%
    09:00 +1°C° 0 mm 3 mps 731 mmHg 78%
    10:00 +2°C° 0 mm 3 mps 731 mmHg 75%
    11:00 +3°C° 0 mm 3 mps 731 mmHg 70%
    12:00 +4°C° 0 mm 4 mps 730 mmHg 65%
    13:00 +5°C° 0 mm 4 mps 730 mmHg 60%
    14:00 +5°C° 0 mm 4 mps 729 mmHg 63%
    15:00 +4°C° 0 mm 4 mps 728 mmHg 65%
    16:00 +4°C° 0 mm 4 mps 727 mmHg 68%
    17:00 +4°C° 0 mm 3 mps 726 mmHg 74%
    18:00 +4°C° 0 mm 3 mps 725 mmHg 80%
    19:00 +4°C° 0 mm 3 mps 724 mmHg 87%
    20:00 +5°C° 0.1 mm 4 mps 724 mmHg 89%
    21:00 +6°C° 0.1 mm 4 mps 723 mmHg 92%
    22:00 +6°C° 0.1 mm 4 mps 722 mmHg 94%
    23:00 +6°C° 0.1 mm 5 mps 722 mmHg 92%

    25 February, Tuesday

    Time Temperature Precipitation Wind Pressure Humidity
    00:00 +7°C° 0.1 mm 5 mps 722 mmHg 89%
    01:00 +7°C° 0.1 mm 6 mps 721 mmHg 87%
    02:00 +7°C° 0 mm 6 mps 720 mmHg 88%
    03:00 +5°C° 0 mm 6 mps 720 mmHg 89%
    04:00 +5°C° 0 mm 6 mps 719 mmHg 89%
    05:00 +5°C° 0.4 mm 6 mps 719 mmHg 90%
    06:00 +5°C° 0.4 mm 6 mps 719 mmHg 91%
    07:00 +5°C° 0.4 mm 6 mps 718 mmHg 91%
    08:00 +5°C° 0.5 mm 6 mps 718 mmHg 90%
    09:00 +5°C° 0.5 mm 6 mps 718 mmHg 88%
    10:00 +5°C° 0.5 mm 6 mps 718 mmHg 87%
    11:00 +5°C° 0.7 mm 6 mps 717 mmHg 87%
    12:00 +5°C° 0.7 mm 7 mps 717 mmHg 87%
    13:00 +5°C° 0.7 mm 7 mps 717 mmHg 87%
    14:00 +4°C° 0.2 mm 7 mps 717 mmHg 84%
    15:00 +4°C° 0.2 mm 7 mps 716 mmHg 81%
    16:00 +4°C° 0.2 mm 8 mps 716 mmHg 78%
    17:00 +3°C° 0 mm 6 mps 716 mmHg 80%
    18:00 +2°C° 0 mm 5 mps 715 mmHg 81%
    19:00 +1°C° 0 mm 4 mps 715 mmHg 82%
    20:00 +1°C° 0 mm 4 mps 715 mmHg 83%
    21:00 +1°C° 0 mm 5 mps 715 mmHg 84%
    22:00 0°C° 0 mm 5 mps 715 mmHg 85%
    23:00 -1°C° 0 mm 6 mps 714 mmHg 88%

    26 February, Wednesday

    Time Temperature Precipitation Wind Pressure Humidity
    00:00 -1°C° 0 mm 6 mps 714 mmHg 90%
    01:00 -1°C° 0 mm 7 mps 714 mmHg 93%
    02:00 -1°C° 0.1 mm 7 mps 713 mmHg 92%
    03:00 -1°C° 0.1 mm 6 mps 712 mmHg 91%
    04:00 -1°C° 0.1 mm 6 mps 711 mmHg 90%
    05:00 -1°C° 0.4 mm 7 mps 711 mmHg 88%
    06:00 -2°C° 0.4 mm 7 mps 711 mmHg 86%
    07:00 -2°C° 0.4 mm 8 mps 710 mmHg 83%
    08:00 -2°C° 0.1 mm 8 mps 711 mmHg 78%
    09:00 -2°C° 0.1 mm 8 mps 711 mmHg 73%
    10:00 -2°C° 0.1 mm 8 mps 711 mmHg 68%
    11:00 -1°C° 0.1 mm 8 mps 712 mmHg 65%
    12:00 0°C° 0.1 mm 8 mps 712 mmHg 63%
    13:00 0°C° 0.1 mm 7 mps 712 mmHg 60%
    14:00 0°C° 0.1 mm 7 mps 712 mmHg 60%
    15:00 0°C° 0.1 mm 7 mps 712 mmHg 59%
    16:00 0°C° 0.1 mm 7 mps 712 mmHg 58%
    17:00 -1°C° 0 mm 6 mps 713 mmHg 65%
    18:00 -1°C° 0 mm 5 mps 714 mmHg 72%
    19:00 -2°C° 0 mm 5 mps 714 mmHg 79%
    20:00 -2°C° 0.2 mm 5 mps 715 mmHg 83%
    21:00 -2°C° 0.2 mm 5 mps 716 mmHg 87%
    22:00 -2°C° 0.2 mm 5 mps 717 mmHg 91%
    23:00 -2°C° 0.1 mm 5 mps 717 mmHg 91%

    27 February, Thursday

    Time Temperature Precipitation Wind Pressure Humidity
    00:00 -2°C° 0.1 mm 5 mps 717 mmHg 91%
    01:00 -2°C° 0.1 mm 5 mps 717 mmHg 90%
    02:00 -3°C° 0.3 mm 6 mps 718 mmHg 90%
    03:00 -3°C° 0.3 mm 6 mps 718 mmHg 90%
    04:00 -3°C° 0.3 mm 6 mps 719 mmHg 89%
    05:00 -3°C° 0.1 mm 6 mps 719 mmHg 89%
    06:00 -3°C° 0.1 mm 6 mps 720 mmHg 89%
    07:00 -3°C° 0.1 mm 6 mps 720 mmHg 89%
    08:00 -3°C° 0.1 mm 6 mps 721 mmHg 86%
    09:00 -2°C° 0.1 mm 6 mps 722 mmHg 83%
    10:00 -2°C° 0.1 mm 7 mps 722 mmHg 80%
    11:00 -1°C° 0.2 mm 6 mps 723 mmHg 78%
    12:00 -1°C° 0.2 mm 6 mps 723 mmHg 75%
    13:00 +1°C° 0.2 mm 6 mps 723 mmHg 73%
    14:00 +1°C° 0.3 mm 6 mps 723 mmHg 75%
    15:00 -1°C° 0.3 mm 6 mps 723 mmHg 76%
    16:00 0°C° 0.3 mm 5 mps 723 mmHg 78%
    17:00 -1°C° 0.1 mm 4 mps 723 mmHg 81%
    18:00 0°C° 0.1 mm 3 mps 723 mmHg 85%
    19:00 -1°C° 0.1 mm 3 mps 723 mmHg 88%
    20:00 -2°C° 0 mm 2 mps 722 mmHg 89%
    21:00 -2°C° 0 mm 2 mps 722 mmHg 90%
    22:00 -3°C° 0 mm 2 mps 722 mmHg 91%
    23:00 -2°C° 0.1 mm 2 mps 721 mmHg 92%
    Show more